Погода в Старых Челнах

Россия / Республика Татарстан     54°58′51″N   50°03′15″E
темп.,
°C
ветер,
м/с
пор.,
м/с
влажн.,
%
обл.,
%
осадки,
мм/ч
давл.,
гПа
погр.,
м
7 мая, пт
пт700:00+10ююз41376100 0.0 1016225
03:00+9ю41076100 0.0 1016162
06:00+11ю51272100 0.0 1016290
09:00+15ю71157100 0.0 1016684
12:00+17ююз81247100 0.0 10162023
15:00+18ююз7104999 0.0 10152229
18:00+16ю410606 0.0 1013305
21:00+13юз41165100 0.0 1015366
8 мая, сб
сб800:00+11зюз2484100 0.0 1016104
03:00+11ссз2286100 0.0 101633
06:00+11всв2391100 0.2 1016160
09:00+11юв3788100 1.1 1017299
12:00+17ююв566086 0.3 10161385
15:00+17ююз355516 1.1 10151224
18:00+15ююв3470100 0.0 101484
21:00+12юв4117492 0.0 1014185
9 мая, вс
вс900:00+11юв41280100 0.0 1013241
03:00+10юв498399 0.0 1013149
06:00+12ююв3981100 0.0 1013244
09:00+18ю575682 0.0 1013732
12:00+20ю5747100 0.0 10131430
15:00+21ю4649100 0.0 10131440
18:00+18юв4863100 0.0 1013171
21:00+14ююв2371100 0.3 101439
10 мая, пн
пн1000:00+13ссв3593100 1.1 101595
03:00+12сз229398 1.1 101726
06:00+11сз5895100 0.0 1020290
09:00+12ссз6786100 0.3 1021455
12:00+13ссз6778100 0.0 1023626
15:00+13с6774100 0.0 1025645
18:00+11с6980100 0.0 1026538
21:00+9ссв61184100 0.0 1027476
11 мая, вт
вт1100:00+7ссв511875 0.0 1028348
03:00+6ссв513835 0.0 1029388
06:00+8св613735 0.0 1030452
09:00+12св78500 0.0 1031789
12:00+15св67434 0.0 10301128
15:00+16св67425 0.0 10301263
18:00+15св35605 0.0 1030128
21:00+10в22665 0.0 103113